Wind_Speed
41 38 36 34 32 32 32 32 32 33 34 34 34 34 34 33 33 33 32 31 29 27 26 24 24 24 25 26 26 27 27 27 27 26 26 26 26 26 26 25 25 25 25 25 25 23 21 21 23 25 25 24 22 21 21 22 23 24 24 23 23 22 22 21 21 20 19 19 21 22 22 21 21 21 21 21 21 21 21 20 20 20 20 21 21 20
32 31 30 30 30 30 31 30 31 31 32 31 31 30 30 29 28 28 27 26 25 24 24 24 24 25 26 27 28 28 28 28 27 27 26 26 26 26 25 25 25 25 25 25 25 24 22 22 24 24 23 21 19 19 20 22 23 23 22 21 20 20 20 21 21 20 19 20 21 22 22 21 21 22 22 22 22 21 20 20 19 19 19 20 20 19
27 28 29 29 29 30 30 30 30 30 30 30 29 28 27 26 25 24 23 23 23 24 24 25 26 27 28 28 29 29 29 28 27 27 26 26 25 25 25 25 24 24 25 25 25 25 24 25 25 24 22 20 19 19 21 22 22 21 20 19 19 20 20 21 21 21 20 20 21 21 21 22 22 23 23 22 22 21 20 19 19 18 18 19 19 18
30 30 30 30 30 30 29 29 29 29 29 29 28 27 26 25 23 22 22 23 24 25 26 27 27 28 29 29 29 29 28 28 27 26 26 25 25 24 24 24 24 24 24 24 25 25 25 26 26 25 22 21 20 21 22 23 23 21 20 20 20 20 20 21 21 21 21 21 21 21 21 22 23 24 24 23 22 21 20 20 19 18 18 18 18 17
34 33 32 31 30 29 29 28 28 28 27 27 26 26 25 24 23 22 23 24 25 26 27 27 28 28 29 29 29 28 28 27 26 26 26 25 25 24 24 23 23 23 23 22 23 23 24 24 24 23 21 21 21 22 23 23 23 22 22 22 21 20 20 20 21 21 21 21 21 21 22 23 24 24 24 23 22 21 20 20 19 18 18 18 17 16
36 34 33 32 31 30 28 28 27 26 26 26 25 25 24 24 23 23 23 24 25 26 27 27 27 28 28 28 28 28 28 27 26 26 26 25 25 24 23 23 24 23 22 21 20 21 21 21 21 21 21 22 23 24 24 23 22 22 23 22 21 21 20 20 21 21 21 21 22 22 22 24 24 24 24 23 22 21 20 20 19 18 18 17 17 16
37 35 33 33 32 30 29 27 26 26 25 25 25 25 25 24 24 24 25 25 26 27 27 27 27 27 28 28 28 28 28 27 27 26 25 25 25 24 24 24 24 23 22 20 20 19 19 20 21 22 23 24 25 25 24 24 23 23 23 22 22 21 21 21 21 21 22 22 22 23 24 24 25 24 23 22 21 21 20 19 19 18 17 17 17 16
37 35 34 34 33 32 30 28 27 26 26 26 27 27 26 26 26 26 26 27 27 28 28 28 28 28 28 28 29 29 28 27 26 26 25 25 24 24 24 25 24 23 22 20 19 20 21 23 24 25 25 26 26 26 26 25 25 25 24 24 23 22 21 21 21 22 23 23 23 24 25 25 25 24 23 22 21 20 20 19 18 18 17 17 16 16
38 36 34 34 34 34 32 30 29 28 27 28 29 29 28 28 28 28 28 29 29 29 29 29 29 29 29 29 29 29 28 27 26 25 25 24 24 25 25 25 24 23 21 20 20 22 24 26 27 27 27 26 26 27 27 27 27 27 26 25 24 23 21 21 22 23 24 24 24 25 25 25 25 24 22 21 20 19 19 18 18 17 17 17 16 15
39 37 36 35 35 35 34 33 31 30 29 29 30 30 30 30 29 29 30 30 30 30 30 30 30 30 29 30 29 29 28 27 26 25 24 24 24 25 25 25 24 22 20 20 22 25 27 28 29 28 28 27 28 28 29 29 29 28 27 25 24 22 21 22 23 24 25 25 25 25 25 25 24 23 21 20 19 19 18 18 17 17 16 16 15 15
40 38 37 36 36 36 36 34 33 31 31 31 31 31 31 30 30 30 31 31 31 31 31 30 30 30 30 30 29 29 28 26 25 24 24 24 25 25 25 25 23 21 21 22 25 28 29 30 30 30 30 30 30 31 31 30 29 28 26 25 23 22 22 23 24 25 26 26 26 26 25 24 23 22 20 19 18 18 18 17 17 16 16 15 15 14
41 39 38 38 38 37 37 36 34 33 32 32 32 32 31 30 30 31 32 32 31 31 31 31 31 30 30 30 29 28 27 26 25 25 25 25 25 25 25 25 24 23 24 26 28 30 31 32 32 32 32 33 33 32 31 30 29 27 25 23 22 22 22 24 25 26 26 26 26 25 24 23 21 20 19 18 18 18 18 18 18 17 16 15 15 15
42 41 40 39 39 38 38 37 36 35 34 33 32 31 31 30 30 31 32 33 32 32 31 31 31 30 30 29 29 28 26 26 26 26 26 26 26 26 26 25 25 25 26 29 31 32 33 33 33 34 34 33 33 32 31 29 27 26 24 23 22 23 24 25 26 26 26 26 26 24 23 21 20 18 17 17 17 18 18 18 18 18 17 16 16 15
43 42 41 41 40 40 39 38 37 36 35 33 32 31 31 31 31 32 33 33 33 32 32 31 31 30 30 30 29 28 27 27 27 27 27 27 27 27 27 26 26 27 28 29 31 32 33 33 33 33 33 32 31 30 29 28 26 25 23 23 23 24 25 26 26 26 26 25 24 23 21 20 18 17 16 17 17 18 19 19 19 18 18 17 16 16
43 42 42 41 41 40 40 39 38 37 35 33 32 32 32 32 32 33 33 33 33 33 32 32 31 31 31 30 30 29 29 28 28 28 28 28 28 28 27 27 27 27 27 28 28 29 30 31 31 31 31 31 30 29 28 27 25 24 23 23 24 24 25 26 26 26 25 24 23 21 20 19 18 17 17 18 18 19 19 19 19 18 18 17 17 16
44 43 43 42 42 41 40 39 38 37 36 34 33 32 33 33 33 33 33 34 33 33 33 32 32 32 32 32 31 31 30 29 29 28 28 29 29 29 28 27 26 26 26 26 26 27 28 29 30 31 31 30 29 29 28 27 26 25 24 24 24 24 25 25 25 25 24 23 21 20 19 19 18 18 18 19 19 19 19 19 18 18 18 17 17 16
45 44 43 43 42 41 41 40 39 38 36 35 34 33 33 33 33 34 34 34 34 33 33 33 33 33 33 32 32 32 31 30 29 29 29 29 29 29 28 27 26 25 26 26 27 28 29 30 31 32 31 31 30 29 28 27 26 25 25 24 24 24 24 24 24 23 23 21 20 19 19 19 18 18 19 20 20 19 19 19 19 18 18 17 16 16
45 44 44 43 42 42 41 40 40 38 37 35 34 34 34 34 34 34 34 34 34 34 34 34 34 34 33 33 32 32 31 31 30 30 30 30 30 30 29 27 27 27 27 28 29 30 31 32 33 33 32 31 30 29 28 27 26 26 25 24 24 24 23 23 23 22 21 20 19 19 19 19 19 19 20 20 20 19 19 19 19 19 18 17 16 15
45 44 43 43 42 42 41 41 40 38 37 36 35 34 34 34 35 35 35 35 35 34 34 34 34 34 33 33 32 32 32 31 31 30 30 30 30 30 30 29 29 29 30 31 32 33 34 34 34 34 33 31 30 29 28 27 26 26 25 24 24 23 23 23 22 22 21 20 19 19 19 19 20 20 21 20 20 19 19 19 19 19 18 17 16 15
44 44 43 43 42 42 42 41 40 38 37 36 35 35 35 35 35 35 35 35 35 35 34 34 34 34 33 33 33 32 32 32 32 32 31 31 32 32 32 31 31 32 33 34 34 35 35 35 34 33 32 31 30 29 28 27 26 26 25 24 23 23 22 22 22 21 20 20 20 20 20 20 21 21 21 20 20 19 20 20 19 19 18 17 16 16
43 43 43 42 42 42 42 41 40 38 37 36 36 36 36 36 36 35 35 35 35 35 35 34 34 34 33 33 33 33 33 33 33 33 33 33 33 33 33 33 33 33 34 35 35 35 35 34 33 32 31 30 29 28 28 27 26 25 25 24 23 22 22 22 21 21 20 20 20 20 20 20 20 20 20 19 19 19 20 20 19 19 18 17 16 16
43 42 42 42 42 42 41 40 40 39 38 37 37 36 36 36 36 35 35 35 35 35 35 34 34 34 34 34 34 34 34 35 34 34 34 34 34 34 34 33 33 33 34 34 34 34 33 32 31 30 29 29 28 28 27 27 26 25 24 23 22 22 22 21 21 21 20 20 20 19 19 19 18 18 18 18 18 19 19 19 19 18 18 17 17 16
42 42 41 41 41 41 41 41 40 39 38 38 37 37 36 36 36 35 35 35 35 35 35 35 35 35 35 35 35 35 35 35 35 35 35 34 34 34 34 33 33 32 32 32 32 32 31 30 29 28 28 28 27 27 26 26 25 24 23 23 22 22 22 21 21 21 20 20 19 18 17 17 16 16 15 15 16 18 19 19 19 18 18 17 17 17
42 41 41 41 41 41 41 41 41 40 39 38 37 37 36 36 36 36 36 36 36 36 36 35 35 35 35 36 36 36 36 36 36 36 35 34 34 34 34 33 32 31 31 31 30 29 29 28 27 27 27 27 27 26 25 25 24 23 23 23 23 22 22 21 21 21 20 19 18 18 17 16 15 15 15 15 16 17 18 18 18 18 18 17 17 17
41 41 41 41 41 41 41 41 41 40 39 38 38 37 37 36 36 36 37 37 36 36 36 36 36 36 36 36 36 36 36 36 36 36 35 34 34 33 33 32 32 31 30 29 29 28 27 27 27 27 27 26 26 25 24 24 23 23 23 23 23 22 22 21 21 21 20 20 19 18 17 17 16 16 16 16 17 18 19 18 18 18 17 17 17 16
41 41 41 41 41 41 41 41 41 40 39 39 38 37 37 37 37 37 37 37 36 36 36 36 36 36 36 36 36 36 36 36 36 36 35 34 33 33 32 32 31 30 29 28 28 28 27 27 27 26 26 25 24 24 23 23 23 23 24 24 23 22 21 21 21 21 20 20 20 19 18 18 17 17 18 18 19 19 19 19 18 17 17 17 17 16
41 41 41 41 41 42 42 41 41 40 40 39 38 37 37 37 37 37 37 36 36 35 36 36 36 36 36 36 36 36 36 36 36 35 35 34 33 32 32 31 30 29 28 28 28 28 27 27 26 26 25 24 23 23 23 23 23 24 24 24 23 22 21 21 20 20 20 21 20 20 19 18 18 18 19 20 21 21 20 19 18 17 17 17 17 16
41 41 41 42 42 42 42 42 41 40 40 39 38 37 37 37 37 36 36 35 35 35 36 36 36 36 35 35 35 35 35 36 35 35 34 34 33 32 31 30 29 29 28 28 28 28 27 27 26 25 24 23 23 23 23 24 24 24 24 24 23 22 21 21 20 20 20 21 21 20 20 19 18 19 21 22 22 21 20 19 18 17 17 17 17 16
41 42 42 42 42 42 42 42 41 41 40 39 38 37 37 36 36 35 35 35 35 36 36 36 35 35 35 35 35 35 35 35 35 35 34 33 32 31 30 29 29 28 28 28 28 28 27 26 25 24 24 23 24 24 24 24 24 24 24 23 22 22 22 21 20 20 20 21 21 20 19 19 19 20 22 22 22 20 19 18 18 18 17 17 16 16
42 42 43 43 43 43 43 42 42 41 40 39 38 37 36 36 35 35 35 35 35 35 35 35 35 35 35 34 35 35 35 35 34 34 33 32 31 30 29 28 28 28 28 28 28 27 26 25 24 24 24 24 24 24 24 23 23 22 22 22 22 22 22 22 21 21 21 21 20 20 19 19 20 21 22 21 20 19 18 18 18 17 17 17 16 16
42 43 43 43 43 43 43 43 42 41 40 39 38 37 36 35 35 35 35 35 35 35 35 35 35 34 34 34 35 35 34 33 33 32 31 30 29 28 27 27 27 27 27 27 27 27 26 25 24 24 24 24 24 23 23 22 21 20 20 20 21 21 21 21 21 21 21 21 20 19 19 19 20 20 20 20 19 18 18 18 18 17 17 16 16 16
43 44 44 44 44 44 44 43 42 41 40 39 38 37 36 35 35 34 34 34 34 34 34 34 34 34 34 34 34 33 32 31 31 30 29 28 27 27 26 26 26 26 26 26 26 26 26 26 25 25 24 24 23 22 22 21 20 20 20 21 21 22 22 22 22 22 21 20 20 19 19 19 20 19 19 19 18 18 18 18 17 17 17 16 16 16
45 45 45 44 44 45 45 44 43 41 40 39 37 36 35 35 34 34 34 34 34 34 34 34 33 33 33 33 33 32 31 30 29 29 28 27 26 26 25 25 25 25 26 26 25 26 26 25 25 24 23 23 23 22 22 22 21 21 21 22 22 22 22 22 22 21 21 20 19 19 19 19 19 19 18 18 18 18 18 17 17 17 16 16 16 16
47 47 46 45 45 45 45 44 43 41 40 38 37 36 35 34 34 34 34 33 33 33 33 33 33 32 32 32 32 31 30 29 28 28 28 27 26 25 25 25 25 25 26 26 26 26 25 25 24 23 23 23 23 23 23 23 22 22 22 22 22 22 22 22 21 21 20 19 19 19 19 18 18 18 18 18 18 17 17 17 17 16 16 16 16 16
49 49 47 46 45 45 45 44 43 41 40 38 37 36 35 34 34 33 33 33 33 33 33 32 32 31 31 30 30 29 28 27 27 28 27 26 25 25 25 25 25 25 26 26 26 25 25 24 24 24 24 24 24 24 24 23 22 22 22 22 22 21 21 21 20 20 19 19 19 18 18 18 18 18 18 17 17 17 17 17 16 16 16 16 16 16
50 49 48 47 46 45 45 44 42 40 39 38 37 36 35 34 33 33 33 33 32 32 31 31 30 30 29 29 28 27 26 26 27 27 26 25 24 24 25 25 25 25 25 25 25 24 24 24 24 24 25 25 24 24 23 23 22 22 21 21 21 20 20 20 20 19 19 19 18 18 18 18 18 17 17 17 17 17 17 16 16 16 16 16 16 16
49 49 48 47 46 46 44 43 41 40 39 38 37 35 34 33 33 33 33 32 31 31 30 30 29 29 28 28 27 26 26 27 27 26 25 24 24 24 25 25 25 25 25 24 24 24 24 25 25 25 25 25 24 23 22 22 21 21 21 20 20 20 19 19 19 18 18 18 18 18 18 18 17 17 17 17 17 17 17 17 17 17 17 16 16 16
47 47 46 47 47 45 43 42 40 39 39 37 36 35 33 33 33 32 32 31 30 30 29 29 28 27 27 27 26 26 26 27 26 25 24 24 24 24 25 25 25 25 25 25 25 25 25 25 25 25 25 24 23 22 22 21 21 20 20 20 19 19 19 19 18 18 18 18 18 17 17 17 17 17 17 17 17 17 17 17 17 17 16 16 16 16
45 44 44 45 46 45 42 40 39 39 38 37 35 34 33 32 32 31 31 30 29 29 28 28 27 26 26 26 26 26 26 25 24 23 23 23 24 24 25 25 25 25 25 25 26 26 26 25 25 24 24 23 22 22 22 21 21 20 20 20 19 19 19 18 18 18 18 17 17 17 17 17 17 17 17 17 17 17 17 17 17 17 16 16 16 16
43 42 42 44 45 44 41 39 38 38 38 36 35 33 32 32 31 30 30 29 29 28 28 27 26 26 26 26 25 25 25 24 23 22 22 23 23 24 24 24 25 25 25 25 26 26 25 25 25 24 24 23 22 22 21 21 20 20 20 20 19 19 19 18 18 18 17 17 17 17 17 17 17 17 17 17 18 17 17 17 17 17 17 16 16 16
41 40 41 43 44 43 40 39 38 38 36 35 34 33 32 31 30 30 29 28 28 27 27 27 26 26 26 26 25 25 24 23 23 22 23 23 23 24 24 24 25 25 25 25 25 25 25 25 24 24 23 23 23 22 21 21 20 20 20 19 19 19 19 18 18 17 17 17 17 17 17 17 17 18 18 18 18 18 18 17 17 17 17 17 17 16
40 40 41 43 43 42 39 38 37 37 35 34 33 32 31 30 29 29 28 28 27 27 27 27 27 27 26 26 25 25 24 24 23 23 24 24 24 24 24 24 25 25 25 25 25 24 24 24 24 24 23 23 22 22 22 21 20 20 19 19 19 19 19 18 18 17 17 17 17 17 17 18 18 18 18 18 18 18 18 18 17 17 17 17 17 17
39 39 40 42 42 41 39 37 36 35 34 33 32 31 30 29 29 28 28 27 27 27 27 27 27 27 27 26 25 25 25 24 24 25 25 25 25 25 25 24 24 24 24 24 24 24 24 24 24 23 23 22 22 22 22 21 21 20 20 19 19 19 18 18 17 17 17 17 17 17 18 18 18 18 18 18 18 18 18 18 18 17 17 17 17 17
38 39 40 42 42 41 38 35 34 33 32 31 30 30 29 29 28 28 28 28 27 27 27 27 27 27 27 26 26 26 25 25 25 26 26 25 25 25 24 24 24 23 23 23 23 23 24 24 23 23 23 22 22 22 21 21 21 20 20 19 19 18 18 18 18 17 17 18 18 18 18 18 18 18 18 18 18 18 17 17 17 17 18 18 18 17
37 38 40 41 42 40 37 34 32 31 30 30 29 29 29 28 28 28 28 28 28 28 28 28 28 28 28 27 27 26 26 26 26 26 26 26 25 25 24 24 23 23 23 23 23 23 23 23 23 23 23 23 22 22 22 21 21 20 20 19 19 18 18 18 18 18 18 18 18 18 18 18 18 18 18 17 17 17 17 17 17 17 18 18 18 18
37 37 39 41 41 39 36 33 31 30 29 29 29 29 29 29 29 29 28 28 28 28 28 29 29 29 28 28 28 27 27 27 27 27 27 26 26 25 24 24 23 23 23 23 23 24 24 24 24 24 24 23 23 22 22 21 21 20 20 19 19 19 19 19 18 18 18 18 18 18 18 18 17 17 17 17 17 17 17 17 18 18 18 18 18 18
36 37 39 40 40 38 35 33 31 30 30 29 29 29 29 29 29 29 28 28 28 29 29 30 30 30 29 29 28 28 28 28 27 27 27 27 26 25 25 24 24 24 24 24 24 24 24 24 25 25 25 24 24 23 22 22 21 20 20 19 19 19 19 18 18 18 18 18 18 18 18 17 17 17 17 17 17 17 17 18 18 18 18 18 18 18
36 37 39 40 39 37 35 33 32 31 30 30 30 30 30 29 29 29 28 28 29 29 30 31 31 31 30 30 30 29 29 28 28 28 28 27 26 26 25 25 25 25 25 25 25 24 24 25 25 25 25 25 24 23 22 22 21 20 20 19 19 19 19 19 19 18 18 18 18 18 17 17 17 16 16 17 17 17 17 18 18 18 18 18 19 19
35 36 38 39 39 37 34 33 32 31 31 31 31 30 30 29 29 28 28 28 29 30 31 31 31 31 31 31 31 30 30 29 29 29 28 28 27 26 26 25 25 26 26 25 25 25 25 25 25 25 25 24 24 23 22 22 21 20 20 20 20 19 19 19 19 19 18 18 18 18 17 17 17 16 16 17 17 17 18 18 18 18 19 19 19 20
34 36 37 38 38 36 33 32 32 32 32 32 31 30 29 29 28 28 28 29 30 30 31 31 32 32 31 31 31 30 30 30 29 29 29 28 27 26 26 26 26 26 26 26 26 26 26 26 25 25 24 24 23 23 22 22 21 21 20 20 20 20 20 20 19 19 18 18 18 18 17 17 17 17 17 17 17 18 18 19 19 19 19 20 20 20
33 35 37 38 37 35 33 32 32 32 32 32 31 30 29 28 28 28 28 29 30 31 31 32 32 32 32 31 31 30 30 29 29 29 29 28 27 27 26 26 26 26 26 26 26 26 26 26 26 25 25 24 23 23 22 21 21 21 20 20 20 20 20 20 19 19 19 18 18 17 17 17 17 17 17 17 18 18 19 19 19 20 20 20 20 21
Wind_Direction
280 281 283 285 286 285 284 283 281 280 279 278 278 278 277 275 273 270 268 265 263 261 261 262 265 269 273 275 277 277 277 276 275 273 272 271 269 268 267 266 265 265 264 263 261 258 258 264 273 278 280 279 277 275 274 273 273 274 275 276 277 276 272 268 265 264 267 272 277 281 284 285 286 286 284 282 279 277 274 271 268 265 261 258 253 246
286 287 288 289 289 288 286 283 280 278 277 276 275 274 273 271 270 269 267 267 266 267 268 269 271 272 274 275 275 275 274 273 271 270 269 268 267 266 265 265 264 264 264 263 259 256 255 261 268 274 277 277 277 277 278 277 276 275 275 276 276 275 272 268 264 261 262 268 274 278 281 284 285 285 283 281 279 276 274 270 266 262 258 254 249 243
288 288 289 289 289 288 286 282 279 277 275 274 272 269 267 266 265 266 267 268 270 271 272 272 273 273 272 272 272 271 270 269 269 268 267 266 265 264 264 264 264 264 264 263 259 254 252 254 260 265 268 269 271 274 276 277 276 275 275 276 277 276 273 267 262 258 259 264 270 275 279 283 285 285 283 281 279 276 273 268 264 259 254 250 245 240
285 285 286 286 285 284 282 280 277 275 273 271 268 265 262 261 261 262 264 267 269 270 271 271 271 271 271 270 270 269 269 268 268 267 267 265 264 263 262 263 264 265 265 263 259 256 253 254 256 260 263 265 268 271 273 274 274 274 275 276 278 278 273 266 259 256 257 263 268 273 278 281 283 283 282 280 278 275 271 266 261 256 251 246 242 237
282 282 281 281 280 279 277 275 274 272 271 268 266 263 261 260 260 262 264 265 267 268 269 269 270 270 270 270 270 269 269 268 267 267 266 264 263 261 261 262 263 265 265 263 260 257 256 256 258 261 263 266 268 269 269 270 271 273 275 277 278 277 271 263 257 254 257 263 268 272 276 278 280 281 280 278 275 272 268 263 258 253 247 242 238 235
281 280 279 277 276 274 272 271 270 269 268 267 265 264 263 263 264 265 267 267 267 267 268 268 269 270 270 270 270 270 269 268 267 266 265 264 262 260 258 259 260 261 261 260 259 257 257 258 260 263 266 267 267 266 266 267 271 275 277 279 278 274 268 261 256 256 259 265 269 272 274 276 277 278 277 275 272 268 264 260 255 250 244 239 236 232
279 278 276 275 274 272 269 267 266 265 265 265 265 265 265 266 267 268 268 268 267 267 267 268 268 269 270 270 270 270 269 269 268 267 265 264 262 259 257 256 256 256 256 256 256 257 259 261 263 265 266 266 266 266 267 270 274 279 281 280 277 272 267 262 259 259 263 267 270 272 273 274 276 276 275 272 268 264 260 256 251 245 240 236 232 230
276 275 274 273 272 271 268 265 264 264 264 264 265 265 266 266 267 267 267 266 266 266 266 266 266 267 268 269 269 269 269 268 267 267 265 264 262 259 256 254 253 253 254 255 257 259 261 262 263 263 263 263 265 268 271 275 279 282 283 280 276 271 267 264 262 263 267 270 272 273 273 274 275 275 273 269 264 259 255 250 245 240 235 232 229 226
272 272 271 271 271 270 267 264 263 263 263 264 265 265 266 266 266 265 265 264 264 264 264 264 265 265 266 266 267 268 267 267 266 265 264 263 261 259 257 255 253 253 254 257 259 260 261 260 260 260 260 262 266 270 274 277 280 282 281 278 274 269 266 264 264 266 269 271 273 273 274 274 274 273 270 265 260 254 249 244 239 234 230 228 226 224
269 270 270 269 269 269 267 265 263 263 263 264 264 265 265 265 265 264 263 262 263 263 263 263 263 264 264 264 264 265 264 264 263 263 262 262 261 259 257 255 253 252 253 255 257 258 258 259 259 261 263 266 269 272 275 277 279 279 278 275 270 266 263 263 265 267 270 272 273 273 274 273 272 270 266 261 255 249 243 237 232 227 225 224 223 222
268 268 267 267 267 267 266 265 264 263 263 263 264 264 264 264 264 264 263 262 261 261 262 262 262 263 263 263 263 262 262 263 263 263 262 261 260 260 259 256 253 249 247 249 252 255 257 259 261 263 266 269 271 273 275 275 276 276 274 270 265 261 260 261 264 267 269 271 272 273 273 271 269 266 261 256 250 243 236 229 224 220 219 220 220 220
267 266 265 265 265 265 265 264 264 263 263 263 264 265 265 265 264 263 262 261 260 259 259 260 261 261 262 263 262 262 262 263 264 264 263 262 261 261 260 258 253 247 243 245 248 252 255 258 261 264 267 269 270 271 272 273 273 272 269 264 259 257 258 260 263 266 268 270 271 271 270 268 264 260 256 251 245 238 231 224 218 214 213 215 217 219
267 266 264 263 263 264 264 264 263 263 263 264 265 265 265 264 262 261 260 260 259 258 258 258 259 260 261 261 261 261 260 260 261 262 263 263 262 261 260 258 254 249 245 245 247 250 254 258 261 263 265 267 268 269 269 270 270 268 265 260 256 255 256 259 262 265 267 269 269 268 266 262 258 254 252 248 243 236 229 222 216 211 209 211 214 217
266 265 263 262 262 262 263 263 263 263 264 265 265 265 264 261 259 258 257 258 258 258 258 258 258 259 259 259 260 259 258 257 258 259 261 262 262 261 259 257 255 253 250 249 250 252 254 257 259 262 263 265 266 267 268 268 267 266 262 257 254 254 256 259 262 264 266 267 267 264 260 254 250 247 246 245 242 236 228 222 216 212 209 209 212 214
266 264 263 261 261 261 261 262 263 263 264 264 264 263 261 259 257 256 256 257 257 257 257 258 258 258 258 258 258 258 258 257 257 258 259 260 260 260 258 256 255 254 253 253 253 254 256 258 260 262 263 264 265 266 266 266 266 263 260 257 254 255 256 259 261 264 265 264 262 258 252 246 242 240 240 241 240 235 228 222 217 213 210 209 210 212
266 264 263 261 260 260 260 261 262 263 263 263 262 261 259 257 256 255 255 256 256 257 257 257 257 258 258 258 258 258 259 259 259 259 259 259 259 260 259 259 258 258 258 257 257 258 259 261 262 263 264 265 265 265 265 265 264 262 259 257 255 256 257 259 261 262 262 260 256 250 244 239 235 232 233 237 237 233 226 221 217 214 211 210 210 210
265 264 263 261 260 259 259 260 260 261 262 261 261 259 258 256 255 254 254 255 255 256 256 257 257 258 259 259 259 260 261 261 262 262 262 262 262 263 263 262 262 262 261 260 260 260 260 262 263 264 265 265 264 264 263 263 262 260 259 257 256 256 257 259 259 259 258 254 249 243 237 233 229 228 230 235 234 230 223 220 216 214 211 210 209 210
265 264 263 261 260 259 259 259 259 260 260 260 260 258 256 255 254 253 253 254 255 255 256 257 257 258 260 261 262 262 263 263 264 264 264 264 264 264 263 261 259 258 258 257 257 258 259 261 262 263 264 264 263 263 262 261 260 259 258 257 256 256 256 257 257 255 252 247 241 235 232 229 227 228 230 232 230 225 220 218 215 213 211 210 209 209
265 264 262 261 260 259 258 258 258 258 259 259 258 257 255 253 252 252 253 253 254 255 256 257 258 259 260 262 263 263 263 263 263 263 262 262 262 261 260 257 254 253 253 254 255 256 258 259 261 262 262 262 261 261 260 260 259 258 257 256 255 255 254 254 253 250 245 239 234 230 229 228 228 229 231 230 226 221 218 216 214 213 211 209 209 209
264 263 262 260 259 258 257 257 257 257 258 257 256 254 253 252 251 251 252 253 254 255 256 257 259 260 261 262 263 263 263 262 262 261 261 260 260 259 258 255 252 251 251 252 254 255 257 258 259 259 260 259 259 259 259 258 257 256 255 254 253 253 252 250 248 244 239 234 230 228 228 229 230 230 229 225 221 218 216 215 214 212 210 209 209 210
263 262 261 259 258 257 257 256 256 256 256 255 254 252 251 250 250 250 251 252 254 255 256 258 259 260 261 262 263 263 262 262 261 260 260 259 259 259 258 256 254 252 251 252 254 255 255 256 257 257 257 257 257 257 257 257 256 255 253 252 251 250 248 246 242 238 234 230 228 228 229 229 230 228 225 221 218 216 215 214 213 212 210 209 209 210
262 261 259 258 256 256 255 255 255 255 254 253 252 250 250 249 249 250 251 252 254 255 256 258 259 260 260 261 261 261 261 261 260 260 259 259 258 259 258 257 255 253 252 253 253 254 254 254 254 255 255 255 256 256 256 255 254 253 251 250 249 247 245 241 237 233 230 228 227 227 227 226 225 223 220 218 217 216 216 215 213 212 211 210 210 211
262 260 258 256 255 254 254 254 254 253 252 251 250 249 248 248 248 249 250 251 253 254 255 256 257 258 258 259 259 259 260 260 260 260 259 258 258 259 259 258 256 254 253 252 252 253 252 252 253 253 254 255 255 255 254 253 251 250 248 248 247 245 241 236 232 229 227 225 223 221 219 217 215 214 213 215 218 220 219 216 214 213 212 211 211 212
261 259 256 255 254 253 253 253 252 252 251 249 248 247 247 247 247 248 249 250 251 253 254 255 256 256 257 258 258 259 259 260 260 260 260 259 259 259 259 258 256 254 253 252 252 252 252 252 252 253 254 254 254 253 251 250 248 247 246 246 245 241 236 232 228 226 223 220 217 214 211 208 206 205 206 212 220 224 223 219 216 214 213 213 213 213
260 257 255 254 253 252 252 251 251 250 249 248 246 246 245 246 246 247 249 250 251 252 254 255 255 256 257 258 259 259 260 260 261 261 261 260 260 259 259 258 256 254 253 253 252 252 251 252 252 253 253 253 252 250 248 246 245 244 244 244 242 237 231 227 225 223 220 215 211 208 206 204 203 204 206 213 222 228 226 221 217 216 215 215 215 214
259 257 254 253 252 251 251 250 250 249 248 246 245 244 244 245 246 247 248 250 251 252 254 255 256 256 257 258 259 260 261 261 261 261 261 260 259 259 258 257 256 254 253 253 252 251 251 251 251 251 251 251 249 247 245 244 243 243 244 243 238 232 226 224 223 221 217 212 209 206 204 203 204 206 211 218 226 229 227 222 218 217 217 216 216 216
257 255 253 252 251 251 250 249 249 248 246 245 244 243 243 244 246 247 248 250 251 253 254 255 256 257 258 258 259 260 261 261 261 261 260 260 258 257 256 256 254 253 252 251 251 251 250 250 250 249 248 247 246 244 243 242 243 243 243 239 233 225 221 221 221 220 216 212 209 207 205 204 205 209 216 223 228 228 225 221 218 218 218 218 218 218
256 254 253 251 250 250 249 248 247 246 245 244 243 243 243 244 246 248 249 250 252 253 254 255 256 256 257 258 259 260 260 260 259 259 258 257 256 255 254 253 252 251 250 249 250 250 249 248 247 246 245 244 242 242 242 242 242 241 239 233 225 219 217 218 219 218 216 213 210 208 206 205 207 212 219 224 226 225 222 219 218 218 219 219 219 219
253 253 252 251 250 249 248 247 246 245 244 243 242 242 243 244 246 248 249 250 252 253 254 254 255 256 257 257 258 258 257 257 257 256 256 254 253 252 252 250 249 248 247 247 247 247 246 245 244 243 242 241 240 240 240 240 239 236 232 224 217 213 213 213 214 215 216 214 211 209 207 207 210 214 220 222 223 221 219 218 218 218 219 219 219 220
251 251 251 250 249 248 247 246 245 243 243 242 242 242 243 244 246 248 249 250 251 253 254 255 255 256 256 256 256 255 255 255 255 255 253 252 251 251 250 248 247 246 245 245 245 244 243 242 241 239 239 238 238 238 236 234 231 226 220 213 209 208 208 209 211 214 215 214 211 209 208 209 212 216 218 219 219 217 217 217 217 218 219 219 220 220
249 249 250 249 248 247 245 244 243 242 241 241 241 242 243 244 246 247 248 250 251 253 254 255 255 255 255 255 255 254 255 255 254 253 252 250 249 249 248 246 245 244 243 242 242 242 241 240 238 237 236 235 234 231 228 223 218 212 207 203 202 203 205 208 211 214 214 212 209 208 209 211 213 215 216 216 216 215 216 216 217 218 218 219 219 220
247 247 248 247 246 245 243 242 241 240 239 239 240 241 242 244 245 247 248 250 251 252 253 253 254 254 254 254 254 253 253 253 252 250 249 247 246 246 244 242 241 240 239 238 237 238 238 237 236 234 232 229 226 221 216 209 204 200 198 199 201 203 206 209 212 213 211 209 207 208 209 211 212 214 214 214 214 214 215 216 216 217 217 218 218 219
246 246 246 245 244 242 241 239 238 238 238 238 239 240 242 243 245 247 248 249 250 251 252 252 252 252 252 252 251 250 249 248 247 246 244 243 242 241 239 237 236 235 234 232 232 232 232 231 230 227 224 220 215 210 205 200 198 197 198 201 204 206 208 210 210 210 208 206 206 207 208 210 211 212 212 212 213 213 214 215 215 216 216 217 218 219
245 246 246 244 242 239 238 236 236 236 236 237 238 240 241 243 244 246 248 249 249 249 250 250 250 250 249 248 247 246 245 243 242 241 240 239 237 236 234 232 231 230 229 228 227 227 226 224 221 218 214 209 205 202 199 199 199 200 202 204 206 207 207 208 207 206 205 205 205 206 207 208 209 210 210 211 212 212 213 214 214 215 216 218 219 220
246 247 247 244 241 237 235 233 233 233 234 236 237 238 240 242 244 246 247 247 248 248 248 248 248 247 246 244 243 242 241 240 239 238 238 236 233 231 229 228 226 225 225 224 223 222 219 216 212 209 206 203 200 199 199 200 201 203 204 205 206 205 205 204 204 203 203 203 204 205 206 207 207 208 209 210 210 211 212 213 215 216 218 219 221 222
249 250 249 246 240 235 232 230 230 231 233 234 236 237 239 241 243 244 245 246 246 246 246 245 244 243 242 240 239 237 235 235 235 235 234 232 229 227 225 223 222 220 219 218 216 213 210 207 205 203 201 200 200 200 200 201 202 203 204 204 203 202 202 201 201 201 202 202 203 204 204 205 206 206 207 209 210 211 213 215 217 219 220 222 223 224
254 254 253 247 241 234 229 227 228 229 231 233 234 235 237 240 242 243 244 244 244 244 243 242 241 240 238 237 234 232 231 231 231 230 228 226 223 221 220 219 217 215 213 210 208 205 203 201 201 200 199 199 200 201 202 201 201 201 201 201 200 199 199 199 200 200 200 201 202 203 203 204 205 206 208 209 211 214 216 218 219 221 222 223 224 226
258 259 255 248 240 234 228 225 225 228 230 231 233 234 236 239 240 241 242 241 241 241 240 239 237 236 234 232 230 229 228 228 227 225 222 219 217 216 215 213 211 209 205 203 201 199 199 199 199 200 200 199 200 200 200 200 200 199 198 198 198 197 197 197 198 198 199 200 201 202 203 204 206 207 210 212 215 217 218 220 221 222 223 224 225 226
262 261 256 247 239 232 226 223 223 226 228 230 232 233 235 237 238 239 239 238 238 237 236 235 233 231 230 228 226 225 224 224 223 220 216 213 211 210 209 207 205 202 199 198 197 196 197 198 199 200 201 200 200 199 198 198 197 197 196 196 196 196 196 196 196 197 198 199 201 202 204 206 208 211 213 216 218 219 220 221 222 223 224 224 225 227
264 261 254 245 237 230 224 221 222 224 227 229 230 232 234 235 236 236 235 235 235 234 233 231 229 227 225 223 221 220 219 218 216 213 210 208 206 205 203 201 199 197 196 195 195 196 197 198 198 199 199 198 197 197 197 197 196 196 195 194 194 194 195 195 195 196 198 200 202 204 207 210 212 214 216 218 219 220 221 221 222 223 224 224 225 226
263 259 252 243 234 227 221 219 220 223 225 227 229 230 232 233 233 233 232 232 232 230 229 227 224 222 220 218 217 215 214 211 208 205 203 202 201 200 199 197 196 195 194 195 195 196 197 198 199 199 198 196 195 194 194 194 195 195 194 193 193 194 195 195 196 198 200 202 205 208 211 213 215 217 219 219 220 221 221 221 221 223 224 225 226 227
259 254 247 239 230 223 218 217 218 221 223 225 227 229 230 230 230 230 230 229 228 226 225 222 220 217 216 214 212 210 208 205 202 199 197 197 197 196 196 195 194 194 194 195 196 197 198 198 199 198 198 196 195 194 193 193 193 193 193 193 194 195 196 197 199 201 204 206 209 212 214 216 218 219 219 220 220 221 221 221 222 223 224 226 227 229
253 248 241 233 225 219 215 215 216 218 221 223 225 226 227 227 227 227 227 226 224 222 220 218 216 213 211 210 208 206 203 200 197 195 194 194 194 194 194 193 194 194 195 195 196 197 198 198 198 198 197 196 196 195 193 193 192 192 193 194 196 197 199 201 204 206 208 210 213 215 216 218 219 220 220 220 220 221 221 222 223 225 226 228 230 232
248 242 235 227 221 215 212 212 213 216 219 222 223 224 224 224 224 224 223 222 220 218 216 214 212 209 208 206 204 202 200 197 195 193 192 192 191 191 192 192 192 193 195 195 196 197 197 197 197 196 196 195 195 194 194 193 193 193 194 196 198 200 203 205 208 210 211 214 216 217 218 219 220 220 221 221 221 222 223 224 226 228 230 232 234 236
243 237 230 223 217 213 210 208 210 213 216 219 221 222 222 222 222 221 220 219 217 215 212 210 208 206 205 203 201 199 197 196 195 193 192 191 190 190 190 191 192 193 195 196 197 197 197 196 196 195 195 194 193 193 194 194 194 195 197 199 201 203 206 208 211 213 215 216 218 219 220 221 221 221 222 222 223 224 226 228 230 232 234 236 238 239
239 233 227 221 216 212 208 206 206 209 213 216 219 220 220 220 220 219 218 216 214 211 209 207 205 203 202 200 198 197 196 195 195 194 193 192 191 190 190 191 193 195 197 198 199 198 197 195 194 194 193 193 193 193 194 195 197 198 200 201 203 206 209 212 214 217 218 220 221 222 222 222 222 222 223 224 226 227 230 232 234 236 238 240 241 243
236 231 225 220 215 211 207 204 204 207 210 214 216 218 218 219 218 217 216 214 211 209 207 204 202 200 199 198 197 197 196 196 196 196 195 194 193 193 193 194 196 198 200 201 201 200 198 196 195 194 193 193 193 194 195 197 199 201 202 204 207 209 212 215 218 220 222 223 223 223 223 223 223 224 225 227 229 231 233 235 237 239 241 242 244 246
234 229 224 220 215 211 207 203 203 205 208 212 214 216 217 217 216 215 213 211 209 207 205 203 201 199 197 197 197 196 196 197 197 197 197 196 196 196 196 198 199 201 202 202 202 200 199 197 196 195 194 194 194 195 197 198 201 203 205 208 210 213 216 219 222 223 224 224 224 224 224 224 224 226 228 230 233 235 237 238 240 242 244 245 247 248
233 228 224 220 216 212 207 203 202 204 207 211 213 215 216 216 214 212 210 209 207 206 204 202 200 198 197 197 197 197 197 197 197 198 198 198 198 198 199 200 201 201 202 201 200 199 198 197 197 197 197 197 197 197 199 201 203 206 209 212 215 218 221 223 225 225 225 225 224 224 224 225 226 229 231 234 236 238 240 242 243 245 246 248 250 251
231 227 223 220 217 212 207 202 202 204 207 210 213 214 214 213 212 210 209 207 206 205 203 201 199 198 198 198 198 198 198 198 199 199 200 200 200 200 200 201 201 201 201 200 198 197 196 196 196 197 199 200 201 201 202 204 207 210 213 216 220 223 226 227 227 226 225 224 224 224 225 226 228 231 234 237 239 242 243 245 247 248 249 251 252 253
229 225 222 220 218 213 206 202 202 204 207 209 211 211 211 210 209 208 208 207 205 204 202 200 199 198 199 199 200 200 200 200 200 201 201 202 202 202 202 202 202 201 200 199 198 197 197 197 197 198 200 202 204 205 206 208 211 214 218 222 225 227 229 229 228 226 224 223 224 224 226 228 231 234 237 240 243 245 247 249 250 251 252 253 254 254
Height
3054 3054 3054 3054 3053 3053 3053 3054 3054 3055 3054 3055 3055 3055 3054 3054 3054 3054 3054 3054 3054 3054 3054 3054 3055 3055 3055 3056 3056 3057 3057 3057 3058 3058 3058 3058 3058 3058 3058 3058 3058 3058 3058 3058 3058 3059 3059 3059 3060 3060 3060 3060 3060 3060 3060 3061 3061 3061 3061 3061 3061 3061 3060 3060 3060 3060 3061 3061 3061 3060 3059 3059 3059 3058 3058 3058 3058 3058 3058 3058 3058 3058 3058 3058 3059 3059
3051 3051 3051 3051 3051 3050 3050 3051 3052 3052 3052 3052 3052 3052 3052 3052 3051 3052 3052 3052 3052 3053 3053 3053 3053 3053 3053 3054 3054 3054 3055 3055 3055 3055 3055 3055 3055 3055 3055 3055 3056 3056 3056 3056 3056 3057 3057 3057 3058 3058 3058 3058 3058 3058 3058 3058 3059 3059 3059 3059 3059 3059 3059 3058 3058 3059 3059 3059 3059 3058 3058 3058 3057 3057 3057 3057 3057 3057 3057 3057 3057 3057 3057 3057 3058 3058
3049 3049 3048 3048 3048 3048 3048 3048 3049 3049 3049 3049 3049 3049 3049 3049 3049 3049 3050 3050 3050 3050 3051 3051 3051 3051 3051 3052 3052 3052 3053 3053 3053 3053 3053 3053 3053 3053 3053 3053 3053 3054 3054 3054 3054 3054 3054 3055 3055 3055 3055 3055 3056 3056 3056 3057 3057 3057 3057 3057 3057 3057 3057 3057 3057 3057 3057 3057 3057 3057 3056 3056 3055 3055 3055 3055 3055 3055 3055 3055 3055 3055 3055 3056 3057 3057
3046 3046 3046 3046 3046 3046 3046 3046 3046 3047 3047 3047 3046 3046 3046 3046 3046 3047 3047 3048 3048 3048 3048 3048 3048 3049 3049 3049 3049 3050 3050 3050 3050 3051 3051 3051 3051 3051 3051 3051 3051 3051 3052 3052 3052 3052 3052 3052 3053 3053 3053 3053 3054 3054 3054 3054 3054 3054 3055 3055 3055 3055 3055 3055 3054 3055 3055 3055 3055 3055 3055 3054 3054 3053 3053 3053 3053 3053 3053 3053 3054 3054 3054 3055 3055 3056
3043 3043 3043 3043 3043 3044 3044 3044 3044 3044 3044 3044 3044 3044 3044 3044 3044 3044 3045 3045 3045 3045 3046 3046 3046 3046 3046 3047 3047 3048 3048 3048 3048 3048 3048 3049 3049 3049 3049 3049 3049 3049 3049 3049 3050 3050 3050 3050 3050 3051 3051 3052 3052 3052 3053 3053 3053 3053 3053 3053 3053 3053 3053 3053 3053 3053 3053 3053 3053 3053 3053 3053 3053 3052 3052 3052 3052 3052 3052 3052 3052 3053 3053 3053 3054 3054
3040 3040 3040 3040 3041 3041 3042 3042 3042 3042 3042 3042 3042 3042 3043 3043 3043 3043 3043 3043 3043 3043 3043 3043 3043 3044 3044 3044 3044 3045 3045 3045 3046 3046 3046 3047 3047 3047 3047 3048 3048 3048 3048 3048 3048 3048 3048 3048 3048 3049 3049 3050 3050 3050 3050 3050 3050 3050 3050 3050 3050 3050 3050 3050 3051 3051 3051 3051 3051 3051 3051 3051 3051 3051 3050 3050 3050 3050 3050 3051 3051 3051 3052 3052 3053 3053
3036 3037 3037 3037 3038 3038 3039 3039 3039 3039 3039 3039 3039 3040 3040 3040 3040 3041 3041 3041 3041 3041 3041 3041 3041 3041 3042 3042 3042 3042 3043 3043 3043 3043 3044 3044 3044 3044 3045 3045 3045 3045 3045 3046 3046 3046 3046 3046 3047 3047 3047 3048 3048 3048 3048 3048 3048 3048 3048 3048 3048 3048 3048 3048 3048 3048 3048 3049 3049 3049 3049 3049 3049 3049 3048 3048 3048 3048 3049 3049 3049 3050 3050 3051 3052 3052
3033 3033 3034 3034 3034 3035 3036 3036 3037 3037 3037 3037 3037 3037 3037 3038 3038 3038 3038 3038 3038 3038 3038 3038 3038 3039 3039 3039 3039 3039 3040 3040 3041 3041 3041 3042 3042 3042 3043 3043 3043 3043 3043 3043 3044 3044 3044 3044 3045 3045 3045 3046 3046 3046 3046 3046 3046 3046 3046 3046 3046 3046 3046 3046 3046 3046 3046 3047 3047 3047 3047 3047 3047 3047 3047 3047 3047 3047 3047 3048 3048 3048 3049 3050 3050 3051
3030 3030 3030 3031 3031 3032 3032 3033 3033 3034 3034 3034 3034 3034 3034 3035 3035 3035 3036 3036 3036 3036 3036 3036 3036 3036 3036 3037 3037 3037 3037 3038 3038 3038 3039 3039 3039 3040 3040 3040 3041 3041 3041 3041 3042 3042 3042 3042 3043 3043 3043 3043 3044 3044 3043 3043 3043 3044 3044 3044 3044 3044 3044 3044 3044 3044 3044 3044 3044 3044 3044 3044 3044 3044 3045 3045 3045 3045 3046 3046 3047 3047 3048 3048 3049 3050
3027 3027 3027 3027 3028 3028 3029 3029 3030 3031 3032 3032 3031 3031 3032 3032 3033 3033 3033 3033 3033 3033 3033 3033 3033 3033 3033 3034 3034 3034 3035 3035 3036 3036 3036 3037 3037 3037 3038 3038 3038 3038 3039 3039 3039 3040 3040 3040 3040 3041 3041 3041 3041 3041 3041 3041 3041 3042 3042 3042 3042 3042 3042 3042 3042 3042 3042 3042 3042 3042 3042 3042 3042 3043 3043 3043 3043 3043 3044 3045 3045 3046 3047 3048 3048 3049
3024 3024 3024 3024 3024 3025 3026 3026 3027 3028 3029 3029 3028 3028 3029 3030 3030 3030 3030 3030 3030 3030 3030 3030 3030 3030 3031 3031 3032 3032 3033 3033 3033 3034 3034 3034 3034 3035 3035 3035 3036 3036 3037 3037 3038 3038 3038 3038 3038 3038 3038 3038 3038 3039 3039 3039 3039 3039 3039 3040 3040 3040 3040 3040 3040 3040 3040 3040 3040 3040 3040 3040 3040 3040 3041 3041 3042 3042 3043 3043 3044 3045 3045 3046 3047 3048
3021 3021 3021 3021 3021 3021 3022 3023 3023 3024 3025 3026 3026 3026 3027 3028 3028 3028 3028 3027 3027 3027 3027 3027 3027 3028 3028 3028 3028 3029 3030 3030 3031 3031 3032 3032 3032 3032 3033 3033 3033 3034 3034 3035 3035 3035 3035 3035 3036 3036 3036 3036 3036 3036 3036 3037 3037 3037 3037 3038 3038 3038 3038 3038 3038 3038 3038 3038 3038 3038 3038 3038 3038 3039 3039 3039 3040 3041 3041 3042 3043 3043 3044 3045 3046 3047
3017 3018 3018 3017 3018 3018 3018 3019 3020 3021 3022 3022 3023 3023 3024 3025 3025 3025 3024 3024 3023 3024 3024 3024 3024 3025 3025 3025 3026 3027 3028 3028 3029 3029 3029 3029 3029 3029 3030 3031 3031 3032 3032 3033 3033 3033 3033 3033 3033 3033 3033 3033 3034 3034 3034 3034 3035 3035 3035 3035 3035 3035 3036 3036 3036 3036 3036 3036 3036 3036 3036 3037 3037 3037 3038 3038 3038 3039 3040 3040 3041 3042 3043 3044 3045 3046
3014 3014 3014 3014 3014 3014 3015 3016 3017 3017 3018 3019 3020 3021 3021 3022 3022 3022 3021 3021 3021 3021 3021 3021 3021 3022 3023 3023 3023 3024 3025 3026 3026 3026 3026 3026 3027 3027 3028 3028 3029 3029 3030 3030 3030 3030 3030 3030 3030 3031 3031 3031 3031 3031 3032 3032 3032 3033 3033 3033 3033 3033 3033 3033 3034 3034 3034 3034 3034 3034 3034 3035 3035 3035 3036 3037 3037 3038 3038 3039 3040 3040 3041 3042 3043 3044
3010 3010 3010 3010 3010 3011 3012 3013 3013 3014 3015 3016 3017 3017 3018 3018 3018 3018 3018 3018 3018 3018 3018 3018 3018 3019 3020 3020 3021 3021 3022 3023 3023 3024 3024 3024 3024 3025 3025 3026 3026 3027 3028 3028 3028 3028 3028 3028 3028 3028 3028 3028 3028 3029 3029 3029 3030 3030 3030 3031 3031 3031 3031 3032 3032 3032 3032 3032 3032 3032 3033 3033 3033 3034 3034 3035 3036 3037 3038 3038 3039 3039 3040 3041 3042 3043
3006 3006 3006 3007 3007 3008 3008 3009 3010 3011 3011 3012 3013 3013 3014 3015 3015 3016 3016 3015 3015 3015 3015 3016 3016 3016 3017 3017 3018 3019 3019 3020 3021 3021 3022 3022 3022 3022 3023 3023 3024 3024 3025 3025 3025 3025 3025 3025 3025 3025 3025 3026 3026 3026 3027 3027 3028 3028 3028 3028 3029 3029 3029 3029 3029 3030 3030 3030 3030 3031 3031 3031 3032 3033 3033 3034 3035 3035 3036 3037 3038 3038 3039 3040 3040 3041
3002 3003 3003 3003 3004 3004 3005 3006 3006 3007 3008 3008 3009 3010 3011 3012 3012 3012 3012 3012 3012 3012 3012 3013 3013 3013 3013 3014 3015 3016 3017 3018 3018 3018 3018 3018 3018 3019 3019 3020 3021 3021 3022 3023 3023 3023 3023 3023 3023 3023 3023 3023 3023 3024 3024 3025 3025 3025 3026 3026 3026 3027 3027 3027 3028 3028 3028 3028 3028 3029 3029 3030 3030 3031 3032 3033 3033 3034 3035 3036 3037 3037 3038 3038 3039 3040
2998 2999 2999 3000 3000 3001 3002 3002 3003 3003 3004 3005 3006 3007 3008 3008 3008 3009 3008 3009 3009 3009 3009 3009 3009 3010 3011 3011 3012 3013 3014 3014 3015 3015 3015 3015 3015 3016 3017 3018 3018 3019 3020 3020 3020 3020 3020 3020 3020 3020 3020 3020 3021 3021 3022 3022 3023 3023 3023 3024 3024 3024 3025 3025 3025 3026 3026 3026 3027 3027 3028 3028 3029 3030 3031 3032 3032 3033 3034 3034 3035 3036 3037 3037 3038 3039
2994 2995 2996 2996 2997 2998 2998 2998 2999 3000 3001 3002 3003 3003 3004 3004 3005 3005 3005 3005 3006 3006 3006 3007 3007 3007 3008 3008 3009 3010 3011 3011 3011 3012 3012 3012 3013 3013 3014 3015 3016 3017 3017 3018 3018 3018 3018 3018 3018 3018 3018 3018 3018 3019 3019 3019 3020 3021 3021 3022 3022 3023 3023 3023 3023 3024 3024 3025 3025 3026 3026 3027 3028 3028 3029 3030 3031 3032 3033 3033 3034 3035 3035 3036 3037 3038
2990 2991 2992 2993 2993 2994 2994 2995 2996 2997 2998 2998 2999 2999 3000 3001 3001 3002 3002 3002 3003 3003 3003 3003 3004 3004 3005 3006 3006 3007 3008 3008 3008 3008 3009 3009 3010 3010 3011 3012 3013 3013 3014 3014 3015 3015 3015 3015 3015 3015 3015 3016 3016 3016 3017 3017 3018 3018 3019 3019 3020 3020 3021 3021 3021 3022 3022 3023 3023 3024 3025 3026 3026 3027 3028 3028 3029 3030 3031 3032 3033 3033 3034 3035 3036 3036
2987 2988 2988 2989 2990 2990 2990 2991 2993 2993 2994 2994 2995 2996 2996 2997 2998 2998 2999 2999 3000 3000 3000 3001 3001 3002 3002 3003 3003 3004 3004 3004 3005 3005 3006 3006 3007 3007 3008 3008 3009 3010 3011 3011 3012 3012 3012 3013 3013 3013 3013 3013 3013 3014 3014 3015 3015 3016 3016 3017 3018 3018 3018 3019 3019 3020 3021 3021 3022 3023 3023 3024 3025 3026 3027 3027 3028 3029 3030 3031 3032 3032 3033 3033 3034 3035
2983 2983 2985 2986 2986 2986 2987 2988 2989 2989 2990 2991 2991 2992 2993 2994 2995 2995 2996 2996 2997 2997 2997 2998 2998 2999 2999 3000 3000 3001 3001 3001 3001 3002 3003 3003 3003 3004 3005 3005 3006 3007 3008 3008 3008 3009 3009 3010 3010 3010 3010 3011 3011 3011 3012 3012 3013 3013 3014 3015 3015 3016 3017 3017 3018 3018 3019 3020 3021 3021 3022 3023 3023 3024 3025 3026 3027 3028 3029 3030 3030 3031 3032 3033 3033 3034
2978 2980 2981 2982 2982 2982 2983 2984 2985 2985 2987 2987 2988 2989 2990 2991 2991 2992 2992 2993 2993 2993 2994 2994 2995 2996 2996 2997 2997 2997 2998 2998 2998 2998 2999 3000 3000 3001 3002 3002 3003 3004 3004 3005 3006 3006 3006 3007 3007 3008 3008 3008 3008 3009 3009 3010 3011 3011 3012 3013 3013 3014 3014 3015 3016 3017 3018 3018 3019 3020 3021 3022 3022 3023 3024 3025 3026 3027 3028 3029 3029 3030 3031 3031 3032 3033
2975 2976 2977 2978 2978 2979 2979 2980 2981 2981 2983 2984 2985 2986 2986 2987 2988 2988 2988 2989 2989 2990 2991 2991 2992 2992 2993 2993 2994 2994 2994 2995 2995 2995 2996 2996 2997 2998 2998 2999 3000 3001 3001 3002 3003 3003 3003 3004 3004 3005 3005 3006 3006 3007 3007 3008 3008 3009 3010 3011 3011 3012 3013 3013 3014 3015 3016 3017 3018 3018 3019 3020 3021 3022 3023 3024 3025 3027 3027 3028 3028 3029 3029 3030 3031 3032
2971 2972 2973 2974 2974 2975 2975 2976 2977 2978 2979 2980 2981 2982 2983 2984 2984 2985 2985 2986 2986 2987 2988 2988 2989 2989 2989 2990 2990 2991 2991 2992 2992 2992 2992 2993 2994 2995 2995 2996 2996 2997 2998 2999 2999 3000 3000 3001 3002 3002 3003 3003 3004 3004 3005 3006 3006 3007 3008 3008 3009 3010 3011 3012 3013 3014 3014 3015 3016 3017 3018 3019 3020 3021 3022 3023 3024 3026 3026 3027 3027 3028 3028 3029 3030 3031
2967 2968 2969 2970 2970 2971 2972 2972 2973 2974 2975 2977 2978 2978 2979 2980 2981 2981 2982 2982 2983 2984 2985 2985 2985 2986 2986 2987 2987 2988 2988 2988 2988 2989 2989 2990 2991 2992 2992 2993 2993 2994 2994 2995 2996 2997 2998 2998 2999 3000 3000 3001 3001 3002 3003 3003 3004 3005 3006 3006 3007 3008 3009 3010 3011 3012 3013 3014 3015 3016 3017 3018 3018 3019 3021 3022 3023 3024 3025 3025 3026 3027 3027 3028 3029 3029
2963 2964 2965 2966 2967 2967 2968 2968 2969 2970 2972 2973 2974 2975 2976 2976 2977 2977 2978 2979 2980 2981 2981 2982 2982 2983 2983 2983 2984 2984 2985 2985 2985 2986 2986 2987 2988 2988 2989 2989 2990 2991 2992 2993 2993 2994 2995 2996 2996 2997 2998 2998 2999 3000 3001 3001 3002 3003 3003 3004 3005 3006 3008 3008 3009 3010 3011 3013 3013 3014 3015 3016 3017 3018 3020 3021 3022 3023 3023 3024 3025 3025 3026 3027 3028 3028
2959 2960 2961 2962 2963 2963 2964 2965 2966 2967 2968 2969 2970 2971 2972 2973 2973 2974 2975 2976 2977 2978 2978 2978 2979 2979 2980 2980 2981 2981 2982 2982 2982 2983 2983 2984 2984 2985 2986 2987 2987 2988 2989 2989 2990 2991 2992 2993 2994 2995 2995 2996 2997 2998 2998 2999 3000 3001 3002 3002 3003 3004 3006 3007 3008 3009 3010 3011 3012 3013 3013 3014 3015 3017 3018 3020 3021 3021 3022 3023 3023 3024 3025 3026 3026 3027
2955 2956 2957 2958 2958 2959 2960 2961 2962 2963 2964 2965 2967 2968 2968 2969 2970 2971 2972 2973 2973 2974 2974 2975 2975 2976 2977 2977 2978 2978 2978 2978 2979 2980 2980 2981 2981 2982 2983 2983 2984 2985 2986 2987 2988 2988 2989 2990 2991 2993 2993 2994 2995 2996 2996 2997 2998 2998 2999 3000 3001 3003 3004 3005 3006 3008 3009 3010 3010 3011 3012 3013 3014 3016 3017 3018 3019 3020 3021 3021 3022 3023 3024 3024 3025 3026
2951 2953 2953 2954 2954 2955 2956 2957 2958 2959 2960 2962 2963 2964 2965 2966 2967 2968 2969 2969 2970 2970 2971 2972 2972 2973 2973 2974 2975 2975 2975 2975 2976 2977 2977 2978 2978 2979 2980 2980 2981 2982 2983 2984 2985 2986 2987 2988 2989 2990 2991 2992 2993 2993 2994 2995 2996 2997 2998 2998 3000 3001 3003 3004 3005 3006 3008 3008 3009 3010 3011 3012 3013 3014 3016 3017 3018 3018 3019 3020 3021 3022 3023 3023 3024 3024
2947 2948 2949 2950 2950 2951 2952 2953 2954 2956 2957 2958 2959 2961 2962 2963 2964 2965 2965 2966 2966 2967 2968 2968 2969 2970 2970 2971 2971 2971 2972 2973 2973 2974 2974 2975 2975 2976 2977 2978 2978 2979 2981 2982 2983 2983 2984 2986 2987 2988 2989 2990 2991 2992 2992 2993 2994 2995 2996 2997 2998 3000 3001 3003 3004 3005 3006 3007 3008 3009 3010 3011 3012 3013 3014 3015 3016 3017 3018 3019 3020 3020 3021 3022 3023 3023
2942 2943 2944 2945 2946 2947 2948 2949 2951 2952 2953 2955 2956 2957 2958 2960 2961 2962 2962 2963 2963 2964 2964 2965 2966 2967 2967 2967 2968 2968 2969 2970 2971 2971 2971 2972 2973 2973 2974 2975 2976 2977 2978 2979 2980 2981 2982 2983 2985 2986 2987 2988 2989 2990 2991 2992 2993 2993 2995 2996 2998 2999 3000 3001 3003 3003 3004 3005 3006 3008 3008 3010 3011 3012 3013 3014 3015 3016 3017 3018 3018 3019 3020 3021 3021 3022
2938 2938 2939 2941 2942 2943 2944 2945 2947 2948 2950 2951 2953 2954 2955 2956 2957 2958 2959 2960 2960 2961 2961 2962 2963 2963 2964 2964 2965 2965 2966 2967 2968 2968 2968 2969 2969 2970 2971 2973 2973 2974 2976 2977 2978 2979 2980 2981 2983 2984 2985 2986 2987 2988 2989 2990 2991 2993 2994 2995 2996 2998 2998 3000 3001 3002 3003 3004 3005 3006 3008 3008 3010 3011 3012 3013 3014 3015 3016 3017 3017 3018 3019 3019 3020 3021
2933 2933 2934 2936 2937 2938 2939 2941 2943 2944 2946 2948 2949 2951 2952 2953 2954 2955 2956 2956 2957 2958 2958 2958 2959 2960 2961 2961 2962 2963 2963 2964 2964 2965 2965 2966 2967 2968 2969 2970 2971 2972 2973 2974 2976 2977 2978 2979 2981 2982 2983 2984 2985 2987 2988 2989 2990 2991 2993 2994 2995 2996 2997 2998 3000 3001 3002 3003 3004 3005 3006 3008 3008 3010 3011 3012 3013 3013 3014 3015 3016 3017 3018 3018 3019 3020
2928 2928 2929 2931 2932 2933 2935 2937 2939 2941 2942 2944 2946 2947 2948 2949 2950 2951 2952 2953 2953 2954 2955 2956 2956 2957 2958 2958 2958 2959 2960 2961 2961 2962 2962 2963 2964 2966 2967 2968 2969 2970 2971 2972 2973 2975 2976 2978 2979 2980 2981 2983 2984 2985 2987 2988 2989 2990 2991 2993 2994 2995 2996 2997 2998 3000 3001 3002 3003 3004 3005 3006 3008 3008 3009 3011 3012 3013 3013 3014 3015 3016 3016 3017 3018 3018
2923 2923 2924 2926 2928 2929 2931 2933 2935 2937 2939 2940 2942 2944 2945 2946 2947 2948 2949 2949 2950 2951 2952 2953 2953 2954 2954 2955 2956 2957 2957 2958 2958 2959 2960 2961 2962 2963 2964 2965 2967 2968 2969 2970 2972 2973 2975 2976 2977 2978 2980 2981 2983 2984 2985 2987 2988 2989 2990 2991 2993 2994 2995 2996 2998 2998 3000 3001 3002 3003 3004 3005 3006 3007 3008 3009 3010 3011 3012 3013 3013 3014 3015 3016 3016 3017
2918 2919 2920 2921 2923 2925 2927 2929 2931 2933 2935 2937 2938 2940 2941 2943 2943 2944 2945 2946 2947 2948 2948 2949 2950 2951 2951 2952 2953 2953 2954 2955 2955 2956 2958 2959 2960 2961 2962 2963 2965 2966 2967 2969 2970 2972 2973 2974 2976 2977 2978 2980 2981 2983 2984 2985 2987 2988 2989 2990 2992 2993 2994 2995 2996 2998 2999 3000 3001 3002 3003 3004 3005 3006 3007 3008 3009 3010 3011 3012 3012 3013 3014 3014 3015 3016
2914 2915 2916 2918 2919 2921 2923 2925 2927 2929 2931 2933 2935 2936 2938 2939 2940 2941 2942 2943 2943 2944 2945 2946 2947 2948 2948 2949 2950 2951 2951 2952 2953 2954 2955 2957 2958 2959 2960 2962 2963 2964 2966 2967 2969 2970 2972 2973 2974 2976 2977 2979 2980 2982 2983 2984 2985 2987 2988 2989 2991 2992 2993 2994 2995 2997 2998 2999 3000 3001 3002 3003 3004 3005 3006 3007 3008 3008 3009 3010 3011 3012 3013 3013 3014 3014
2910 2911 2913 2914 2916 2917 2919 2921 2923 2926 2928 2929 2931 2933 2934 2935 2936 2938 2938 2939 2940 2941 2942 2943 2944 2945 2946 2946 2947 2948 2949 2950 2951 2952 2953 2955 2956 2958 2959 2960 2961 2963 2964 2966 2967 2969 2970 2972 2973 2975 2976 2978 2979 2981 2982 2983 2984 2986 2987 2988 2989 2991 2992 2993 2994 2996 2997 2998 2999 3000 3001 3002 3003 3004 3005 3006 3007 3007 3008 3009 3010 3010 3011 3012 3013 3013
2907 2908 2909 2910 2912 2914 2916 2918 2920 2922 2924 2926 2928 2929 2930 2932 2933 2934 2935 2936 2937 2938 2939 2940 2941 2942 2943 2944 2945 2946 2947 2948 2949 2951 2952 2953 2955 2956 2957 2959 2960 2962 2963 2965 2966 2968 2969 2971 2972 2974 2975 2977 2978 2979 2981 2982 2983 2984 2986 2987 2988 2990 2991 2992 2993 2994 2996 2997 2998 2999 3000 3001 3002 3003 3003 3004 3005 3006 3007 3008 3008 3009 3010 3010 3011 3012
2903 2904 2905 2907 2909 2912 2913 2914 2916 2918 2921 2923 2924 2926 2927 2928 2930 2931 2932 2933 2935 2936 2937 2938 2939 2940 2941 2942 2943 2944 2945 2946 2948 2949 2951 2952 2953 2955 2956 2958 2959 2961 2962 2964 2965 2967 2968 2970 2971 2973 2974 2975 2977 2978 2980 2981 2983 2984 2985 2986 2988 2989 2990 2991 2993 2993 2995 2996 2997 2998 2999 3000 3001 3001 3002 3003 3004 3005 3005 3006 3007 3008 3008 3009 3010 3011
2900 2901 2902 2904 2906 2908 2909 2911 2913 2915 2918 2919 2921 2922 2923 2925 2927 2928 2929 2931 2932 2933 2934 2935 2936 2937 2938 2939 2941 2942 2943 2945 2946 2948 2949 2951 2952 2954 2955 2957 2958 2960 2961 2963 2964 2966 2967 2969 2970 2972 2973 2974 2976 2977 2978 2980 2981 2983 2984 2985 2987 2988 2989 2990 2991 2992 2993 2994 2995 2996 2998 2998 2999 3000 3001 3002 3003 3003 3004 3005 3006 3006 3007 3008 3008 3009
2896 2897 2899 2901 2902 2904 2905 2908 2910 2912 2914 2916 2917 2919 2921 2922 2924 2925 2927 2928 2929 2930 2932 2933 2934 2935 2936 2937 2939 2940 2942 2943 2945 2947 2948 2949 2951 2952 2954 2955 2957 2959 2960 2962 2963 2965 2966 2968 2969 2971 2972 2974 2975 2976 2978 2979 2980 2982 2983 2984 2985 2987 2988 2989 2990 2991 2992 2993 2994 2995 2996 2997 2998 2998 2999 3000 3001 3002 3003 3003 3004 3005 3006 3006 3007 3008
2893 2894 2895 2897 2899 2900 2902 2904 2906 2908 2910 2912 2914 2916 2918 2919 2921 2922 2924 2925 2927 2928 2929 2930 2931 2933 2934 2936 2937 2939 2940 2942 2944 2945 2947 2948 2949 2951 2953 2954 2956 2958 2959 2961 2962 2964 2965 2967 2968 2970 2971 2973 2974 2975 2977 2978 2979 2981 2982 2983 2984 2986 2987 2988 2989 2990 2991 2992 2993 2993 2994 2995 2996 2997 2998 2999 2999 3000 3001 3002 3003 3003 3004 3005 3005 3006
2888 2890 2891 2893 2895 2897 2898 2900 2903 2905 2908 2910 2912 2913 2915 2917 2918 2920 2921 2923 2924 2925 2926 2928 2929 2931 2932 2934 2936 2937 2939 2941 2943 2944 2945 2947 2948 2950 2952 2953 2955 2957 2958 2960 2961 2963 2964 2966 2968 2969 2970 2972 2973 2974 2976 2977 2978 2979 2981 2982 2983 2984 2985 2987 2988 2988 2989 2990 2991 2992 2993 2994 2994 2995 2996 2997 2998 2999 3000 3000 3001 3002 3003 3003 3003 3004
2884 2886 2888 2890 2892 2893 2895 2897 2899 2902 2905 2907 2909 2911 2912 2914 2916 2917 2918 2920 2921 2923 2924 2925 2927 2928 2930 2932 2934 2936 2938 2939 2941 2943 2944 2946 2947 2949 2951 2953 2954 2956 2957 2959 2960 2962 2963 2965 2966 2968 2969 2971 2972 2973 2975 2976 2977 2978 2979 2981 2982 2983 2984 2985 2986 2987 2988 2989 2990 2990 2991 2992 2993 2994 2995 2995 2996 2997 2998 2999 2999 3000 3001 3001 3002 3002
2881 2883 2885 2887 2889 2891 2892 2894 2896 2899 2901 2904 2906 2908 2910 2911 2913 2914 2916 2918 2919 2920 2922 2923 2925 2927 2929 2931 2933 2935 2937 2938 2940 2942 2943 2945 2946 2948 2950 2952 2953 2955 2956 2958 2959 2961 2962 2964 2965 2966 2968 2969 2971 2973 2974 2975 2976 2977 2978 2979 2981 2982 2983 2984 2985 2986 2987 2987 2988 2989 2990 2990 2991 2992 2993 2994 2995 2996 2997 2997 2998 2998 2999 2999 3000 3000
2878 2880 2882 2885 2887 2888 2889 2891 2893 2896 2898 2901 2903 2905 2907 2908 2910 2912 2913 2915 2917 2918 2920 2921 2923 2925 2927 2929 2931 2933 2935 2937 2939 2940 2942 2943 2945 2947 2949 2951 2952 2953 2955 2957 2958 2960 2961 2963 2964 2965 2967 2968 2970 2971 2973 2974 2975 2976 2977 2978 2979 2980 2981 2982 2983 2984 2985 2986 2986 2987 2988 2989 2990 2990 2991 2992 2993 2994 2995 2995 2996 2997 2997 2998 2998 2998
2876 2878 2880 2882 2884 2886 2887 2888 2891 2893 2896 2898 2901 2903 2904 2906 2908 2909 2911 2913 2915 2916 2918 2920 2922 2923 2926 2928 2930 2932 2933 2935 2937 2939 2940 2942 2944 2946 2948 2949 2951 2953 2954 2956 2957 2958 2960 2961 2963 2964 2966 2967 2968 2970 2971 2973 2973 2975 2976 2977 2978 2979 2979 2980 2981 2982 2983 2984 2985 2986 2986 2987 2988 2989 2990 2991 2991 2992 2993 2993 2994 2995 2995 2996 2996 2997
2873 2875 2878 2880 2882 2883 2884 2886 2888 2891 2893 2896 2898 2900 2902 2903 2906 2908 2909 2911 2913 2914 2916 2918 2920 2922 2924 2926 2928 2930 2932 2933 2935 2937 2939 2941 2943 2945 2946 2948 2950 2951 2953 2954 2956 2957 2959 2960 2961 2963 2964 2966 2967 2968 2970 2971 2972 2973 2974 2975 2976 2977 2978 2979 2980 2981 2982 2983 2983 2984 2985 2986 2987 2988 2988 2989 2990 2990 2991 2992 2992 2993 2993 2994 2994 2994
2870 2873 2875 2878 2879 2881 2883 2884 2886 2888 2891 2893 2895 2897 2899 2901 2903 2905 2907 2909 2911 2913 2914 2916 2918 2921 2923 2925 2927 2929 2931 2932 2934 2936 2938 2940 2942 2943 2945 2947 2948 2950 2952 2953 2954 2956 2957 2958 2960 2962 2963 2964 2966 2967 2968 2970 2971 2972 2973 2974 2975 2975 2976 2977 2978 2979 2980 2981 2982 2983 2983 2984 2985 2986 2987 2987 2988 2988 2989 2990 2990 2991 2991 2992 2992 2993